Location: Bas-Clignon
(44.2000°N, 6.6333°E)
Time: 13:03:15
(UTC+00:00)

Okean O Rocket - Pass Details

Date: 03 February 2023
Orbit: 621 x 643 km, 98.2° (Epoch: 19 March)

Event Time Altitude Azimuth Distance (km) Brightness Sun altitude
Rises 19:14:00 0° 183° (S) 2,904 5.0 -26.8°
Reaches altitude 10° 19:16:17 10° 191° (S) 2,006 4.2 -27.2°
Maximum altitude 19:20:25 41° 262° (W) 923 2.8 -28.0°
Drops below altitude 10° 19:24:36 10° 333° (NNW) 2,034 4.5 -28.7°
Sets 19:26:56 0° 340° (NNW) 2,952 5.3 -29.1°
